Change the Weather History Date:

Friday, January 3, 2014

  Actual Average Record
Temperature  
Mean Temperature 2 °F 19 °F  
Max Temperature 18 °F 27 °F 55 °F (1880)
Min Temperature -15 °F 12 °F -24 °F (1887)
Degree Days  
Heating Degree Days 63 46  
Month to date heating degree days 186 138  
Since 1 July heating degree days 3311 2948  
Cooling Degree Days 0 0  
Month to date cooling degree days 0 0  
Year to date cooling degree days 0 0  
Moisture  
Dew Point 0 °F    
Average Humidity 80    
Maximum Humidity 87    
Minimum Humidity 73    
Precipitation  
Precipitation 0.00 in 0.04 in 1.39 in (1971)
Month to date precipitation 0.05 0.12  
Year to date precipitation 0.05 0.12  
Snow  
Snow 0.00 in 0.30 in - ()
Month to date snowfall 0.9 1.0  
Since 1 July snowfall 23.2 15.6  
Snow Depth 9.00 in    
Sea Level Pressure  
Sea Level Pressure 30.14 in    
Wind  
Wind Speed 17 mph (South)    
Max Wind Speed 33 mph    
Max Gust Speed 39 mph    
Visibility 10 miles    
Events      
T = Trace of Precipitation, MM = Missing Value Source: NWS Daily Summary

Daily Weather History Graph

Daily Weather History Graph

Search for Another Location

Airport or City:

Trip Planner

Search our weather history database for the weather conditions in past years. The results will help you decide how hot, cold, wet, or windy it might be!

Date:

Astronomy

Jan. 03, 2014 Rise Set
Actual Time 7:32 AM CST 4:42 PM CST
Civil Twilight 7:00 AM CST 5:14 PM CST
Nautical Twilight 6:25 AM CST 5:49 PM CST
Astronomical Twilight 5:51 AM CST 6:23 PM CST
Moon 8:54 AM CST (1/3) 7:56 PM CST (1/3)
Length of Visible Light 10h 13m
Length of Day
9h 10m
Waxing Crescent, 8% of the Moon is Illuminated
Jan 3
Waxing Crescent
Jan 7
First Quarter
Jan 15
Full
Jan 23
Last Quarter
Jan 30
New

Hourly Weather History & Observations

Time (CST) Temp. Windchill Dew Point Humidity Pressure Visibility Wind Dir Wind Speed Gust Speed Precip Events Conditions
12:53 AM -9.9 °F - -14.1 °F 82% 30.46 in 10.0 mi Calm Calm - N/A   Clear
1:53 AM -11.9 °F - -16.1 °F 82% 30.46 in 10.0 mi Calm Calm - N/A   Clear
2:53 AM -14.1 °F - -18.9 °F 79% 30.47 in 10.0 mi Calm Calm - N/A   Clear
3:53 AM -15.0 °F -25.0 °F -18.0 °F 86% 30.45 in 10.0 mi SSW 3.5 mph - N/A   Clear
4:53 AM -9.0 °F -18.2 °F -14.1 °F 79% 30.43 in 10.0 mi South 3.5 mph - N/A   Clear
5:53 AM -8.0 °F -22.5 °F -11.0 °F 86% 30.40 in 10.0 mi South 6.9 mph - N/A   Clear
6:53 AM -6.0 °F -23.6 °F -9.9 °F 83% 30.38 in 10.0 mi South 10.4 mph - N/A   Scattered Clouds
7:53 AM -2.0 °F -21.9 °F -5.1 °F 87% 30.36 in 10.0 mi South 15.0 mph - N/A   Mostly Cloudy
8:53 AM -0.9 °F -21.2 °F -4.0 °F 87% 30.35 in 10.0 mi South 16.1 mph - N/A   Mostly Cloudy
9:53 AM 1.0 °F -19.9 °F -2.9 °F 83% 30.32 in 10.0 mi South 18.4 mph - N/A   Overcast
10:53 AM 3.9 °F -17.6 °F -0.0 °F 84% 30.27 in 9.0 mi South 21.9 mph - N/A   Overcast
11:53 AM 7.0 °F -13.6 °F 1.9 °F 80% 30.21 in 10.0 mi South 21.9 mph - N/A   Overcast
12:53 PM 9.0 °F -11.4 °F 3.0 °F 77% 30.14 in 8.0 mi South 23.0 mph 29.9 mph N/A   Overcast
1:53 PM 10.9 °F -8.8 °F 5.0 °F 77% 30.09 in 8.0 mi South 23.0 mph 31.1 mph N/A   Mostly Cloudy
2:53 PM 12.9 °F -9.2 °F 6.1 °F 74% 30.01 in 9.0 mi South 33.4 mph 39.1 mph N/A   Clear
3:53 PM 12.9 °F -8.0 °F 7.0 °F 77% 29.98 in - South 28.8 mph - N/A   Unknown
4:53 PM 14.0 °F -4.7 °F 8.1 °F 77% 29.95 in 10.0 mi South 23.0 mph 33.4 mph N/A   Clear
5:53 PM 14.0 °F -5.1 °F 9.0 °F 80% 29.90 in 10.0 mi South 24.2 mph - N/A   Clear
6:53 PM 15.1 °F -3.7 °F 9.0 °F 77% 29.87 in 10.0 mi South 24.2 mph 34.5 mph N/A   Clear
7:53 PM 14.0 °F -3.4 °F 9.0 °F 80% 29.86 in 10.0 mi South 19.6 mph - N/A   Clear
8:53 PM 16.0 °F -2.8 °F 10.9 °F 81% 29.84 in 10.0 mi South 25.3 mph 33.4 mph N/A   Clear
9:53 PM 17.1 °F -1.7 °F 12.0 °F 81% 29.81 in 10.0 mi South 26.5 mph 31.1 mph N/A   Clear
10:53 PM 18.0 °F -0.8 °F 12.0 °F 78% 29.77 in 10.0 mi South 27.6 mph 34.5 mph N/A   Clear
11:53 PM 18.0 °F 0.6 °F 12.9 °F 81% 29.75 in 10.0 mi South 23.0 mph - N/A   Clear